This is the latest recevied weather packets stored in our database for station/object DJ0JJ-11. If no packets are shown the sender has not sent any weather packets the latest 10 day(s).
| Time | Temp. | Humidity | Pressure | Rain* | Wind** | Luminosity | Snow |
|---|---|---|---|---|---|---|---|
| 1777509790 | 11.11° C | 40% | 1025.1 hPa | - | - | - | - |
| 1777508890 | 11.11° C | 40% | 1024.9 hPa | - | - | - | - |
| 1777507990 | 11.11° C | 40% | 1024.8 hPa | - | - | - | - |
| 1777507090 | 11.11° C | 40% | 1024.8 hPa | - | - | - | - |
| 1777506190 | 11.67° C | 38% | 1024.7 hPa | - | - | - | - |
| 1777505290 | 11.67° C | 39% | 1024.8 hPa | - | - | - | - |
| 1777504390 | 12.22° C | 38% | 1024.8 hPa | - | - | - | - |
| 1777503490 | 12.22° C | 38% | 1024.8 hPa | - | - | - | - |
| 1777502590 | 12.78° C | 38% | 1024.7 hPa | - | - | - | - |
| 1777501689 | 12.78° C | 37% | 1024.5 hPa | - | - | - | - |
| 1777500789 | 12.78° C | 37% | 1024.4 hPa | - | - | - | - |
| 1777499889 | 13.33° C | 37% | 1024.4 hPa | - | - | - | - |
| 1777498989 | 13.33° C | 36% | 1024.3 hPa | - | - | - | - |
| 1777498089 | 13.89° C | 35% | 1024.3 hPa | - | - | - | - |
| 1777497189 | 13.89° C | 33% | 1024 hPa | - | - | - | - |
| 1777496289 | 14.44° C | 33% | 1024 hPa | - | - | - | - |
| 1777495399 | 14.44° C | 32% | 1023.7 hPa | - | - | - | - |
| 1777493588 | 14.44° C | 33% | 1023.6 hPa | - | - | - | - |
| 1777492688 | 14.44° C | 32% | 1023.5 hPa | - | - | - | - |
| 1777491788 | 15° C | 31% | 1023.1 hPa | - | - | - | - |
| 1777490888 | 15.56° C | 29% | 1023 hPa | - | - | - | - |
| 1777489987 | 16.11° C | 28% | 1022.8 hPa | - | - | - | - |
| 1777489087 | 16.11° C | 28% | 1022.6 hPa | - | - | - | - |
| 1777488187 | 16.67° C | 27% | 1022.6 hPa | - | - | - | - |
| 1777487287 | 17.22° C | 27% | 1022.4 hPa | - | - | - | - |
* Rain since midnight (hover to see other rain measurements)
** Current wind speed in m/s (hover to see current wind gust speed)